カタログに戻る

GSAT 7A

運用中軍事GEO
NORAD 43864·PAYLOAD·🇮🇳 India

打ち上げ Dec 19, 2018 から Satish Dhawan Space Centre

Loading…

TLE

最新Source: Space-Track

元期: Sep 14, 2026, 14:06 UTC

1 43864U 18105A   26257.58758106  .00000018  00000-0  00000-0 0  9991
2 43864   0.0264 103.7488 0001871  77.3918  86.7543  1.00273987 28349

AllMySatでGSAT 7Aをリアルタイム追跡

Download on the App Store